Location: Recife
(8.0585°S, 34.8848°W)
Time: 10:44:59
(UTC-03:00)

Transit 2A Rocket - Pass Details

Date: 17 April 2026
Orbit: 587 x 895 km, 66.7° (Epoch: 14 May)

Event Time Altitude Azimuth Distance (km) Brightness Sun altitude
Rises 00:17:54 0° 225° (SW) 3,452 - -75.3°
Reaches altitude 10° 00:20:53 10° 239° (WSW) 2,539 - -74.6°
Maximum altitude 00:25:23 23° 288° (WNW) 1,822 - -73.5°
Drops below altitude 10° 00:29:55 10° 338° (NNW) 2,551 - -72.4°
Sets 00:32:56 0° 352° (N) 3,473 - -71.7°
